Temp
3 2 2 2 2 2 2 2 2 3 3 3 5 5 5 6 7 7 6 7 6 2 6 7 7 4 5 3 3 4 4 6 4 4 4 2 4 4 5 4 3 4 4 4 5 4 3 3 4 4 3 3 3 3
3 2 3 2 3 2 2 2 2 2 3 3 4 5 5 6 7 7 6 7 7 6 6 9 8 8 8 8 4 4 6 6 2 2 3 3 3 4 5 5 5 4 4 4 3 3 3 2 2 2 2 3 3 3
3 3 3 2 3 2 2 2 2 2 3 3 3 4 4 5 6 6 6 6 7 5 5 6 6 9 9 9 9 4 4 6 5 4 2 2 4 4 4 4 5 5 5 4 4 3 3 3 3 3 3 3 3 4
3 3 3 3 2 2 2 2 2 2 3 3 3 4 4 5 5 6 5 5 6 6 2 6 10 10 10 10 10 10 8 10 8 4 3 2 2 3 4 5 4 5 5 4 4 4 5 4 3 4 4 4 5 6
3 3 3 3 2 2 2 2 2 2 3 3 3 4 4 4 5 5 5 5 5 4 3 4 10 10 10 11 11 11 10 6 4 3 1 5 4 3 4 4 4 4 3 3 4 5 4 3 4 5 5 5 6 6
3 3 3 3 2 2 2 2 2 2 2 3 3 4 4 4 4 4 1 5 5 5 1 3 9 10 10 11 11 10 10 6 5 1 2 4 6 4 2 2 5 6 6 6 5 6 6 6 6 7 6 6 6 6
3 3 3 2 2 2 2 2 2 2 2 3 3 4 4 4 4 4 2 4 5 5 1 3 6 9 10 11 10 8 10 6 6 4 3 4 5 3 1 3 6 7 7 7 8 7 6 6 6 7 7 7 7 6
3 3 3 2 2 2 2 2 2 3 2 3 3 3 4 4 3 4 4 4 5 5 4 2 4 5 11 6 5 9 5 5 4 5 5 5 4 3 2 7 8 8 8 8 8 8 7 8 8 7 8 7 6 5
3 3 3 2 2 2 2 2 2 3 2 3 3 3 3 4 3 4 4 4 4 4 2 4 4 3 8 6 6 5 5 2 6 3 5 4 4 3 7 8 8 9 9 8 8 8 8 7 7 7 7 6 5 5
3 3 2 2 2 2 2 2 2 2 2 2 3 2 -0 3 4 4 3 0 -1 1 1 3 5 3 5 5 5 4 3 3 3 4 4 2 2 8 9 8 9 9 9 9 8 8 7 7 7 7 7 7 7 6
3 2 2 2 2 2 2 2 2 2 2 2 0 0 4 4 5 3 0 1 0 2 2 5 6 5 6 3 3 3 2 3 4 4 4 3 4 5 9 9 9 10 10 9 9 9 9 8 7 7 7 8 8 7
3 2 2 2 2 2 2 2 2 2 2 3 3 4 4 4 1 1 1 3 5 5 5 5 5 6 5 6 2 4 5 5 7 7 3 4 3 8 8 9 9 10 10 9 10 9 9 9 8 8 7 7 7 7
2 2 2 2 2 2 2 2 2 2 2 2 2 3 1 1 0 3 -0 4 3 6 6 6 4 5 5 5 2 3 6 4 5 2 4 5 6 9 9 9 9 10 10 10 9 9 9 9 8 8 7 7 7 6
2 2 2 2 2 2 2 2 2 2 2 1 1 0 1 1 2 4 5 5 6 7 6 5 5 3 4 4 3 6 5 6 4 4 6 2 7 8 8 8 8 9 9 9 9 9 8 8 8 8 8 8 6 5
2 2 2 2 2 2 2 2 2 2 3 2 3 1 3 4 5 6 6 8 8 6 6 5 5 4 3 4 4 6 6 4 5 5 6 6 8 8 8 8 7 8 9 9 9 8 8 8 8 8 8 7 6 4
2 1 1 2 2 2 2 1 1 2 3 3 4 3 4 4 3 4 6 6 8 6 6 6 5 3 5 4 5 5 6 6 5 5 5 7 8 8 8 9 10 9 9 9 9 8 8 8 8 8 8 6 5 5
1 2 1 2 2 1 1 1 1 2 3 4 2 3 3 4 3 5 6 5 9 6 5 3 5 5 4 4 6 5 5 6 6 6 7 8 9 8 9 10 10 9 9 9 9 8 8 8 8 8 6 4 4 4
2 2 2 2 1 1 0 1 1 2 2 2 2 3 4 4 4 4 5 7 6 6 6 6 6 5 3 6 6 5 6 5 5 6 7 9 10 10 10 10 10 9 9 8 8 8 8 7 7 6 6 5 4 3
2 2 2 1 1 1 -0 -0 0 2 3 3 3 3 4 4 6 7 7 9 9 9 6 5 6 5 5 5 5 5 5 5 6 5 7 10 11 10 10 10 9 9 9 9 8 8 8 7 6 5 4 4 2 2
2 2 2 1 1 0 1 1 0 2 3 3 4 4 3 3 5 5 5 6 6 6 4 4 5 4 4 5 6 6 6 8 6 5 5 7 10 10 10 9 9 9 9 9 8 8 7 6 5 5 4 3 2 1
2 1 1 1 1 1 1 1 1 2 3 3 4 3 3 4 3 4 2 5 2 2 3 4 4 5 9 10 10 9 9 9 6 5 5 4 9 9 9 10 10 9 8 8 7 6 6 5 5 5 3 2 1 1
1 1 1 0 -0 -1 0 1 2 3 3 3 3 3 2 2 3 2 2 3 5 5 3 4 5 6 6 6 8 9 9 9 10 9 9 9 5 6 7 8 8 7 7 7 7 7 6 5 4 4 3 2 1 0
1 0 -0 -1 1 0 1 1 2 3 3 4 4 4 2 2 2 4 3 3 3 5 7 7 7 8 8 8 8 8 9 9 8 8 9 9 9 9 8 8 8 8 7 7 7 7 6 5 4 3 2 2 0 -1
0 -0 1 1 1 2 1 2 3 3 3 4 4 4 4 3 2 2 3 4 3 6 5 6 7 6 7 7 6 7 7 7 7 8 9 8 8 8 8 8 8 8 8 7 7 6 5 4 3 2 1 1 1 -0
1 1 1 1 1 2 2 3 3 3 3 4 5 4 3 3 2 3 3 3 5 5 4 5 5 5 5 5 5 6 7 8 6 5 8 8 8 7 7 7 7 7 7 7 6 6 4 3 3 2 1 0 1 -1
2 2 1 2 2 2 3 3 3 3 4 3 4 5 4 3 3 3 3 5 5 4 3 3 4 4 4 5 4 5 6 8 8 6 7 7 7 7 5 4 5 6 7 7 7 5 3 2 1 1 0 -0 -0 -1
2 3 2 3 4 4 3 5 4 4 2 1 4 3 3 2 3 3 3 5 4 5 5 5 5 5 5 6 6 7 7 8 8 7 8 7 7 7 7 6 4 6 6 6 6 6 5 3 1 1 0 -1 -1 -1
2 3 2 3 4 5 3 4 4 4 4 4 5 4 2 3 3 3 3 8 8 8 7 7 7 7 6 7 7 8 8 8 7 7 7 7 7 7 7 6 6 6 6 6 6 6 5 4 3 2 0 -1 -1 -1
2 4 4 3 3 3 4 4 4 4 4 5 5 5 4 3 3 3 8 8 8 8 7 6 7 7 6 7 7 7 7 7 5 1 2 3 2 5 6 6 6 5 5 5 5 5 5 4 3 2 1 -0 -1 -2
3 5 5 3 2 4 5 3 5 3 3 4 5 5 5 4 9 9 9 8 7 7 8 8 8 6 3 2 3 4 6 6 6 5 3 3 4 6 6 6 5 5 5 5 5 4 3 2 1 -0 -2 -3 -2 -2
4 4 4 5 4 5 2 2 1 3 4 4 3 5 5 4 7 8 9 9 9 8 6 4 3 3 1 1 1 1 1 5 5 6 6 6 6 5 6 6 6 4 4 4 4 3 2 -0 -1 -2 -3 -3 -3 -3
4 4 5 4 3 2 2 2 2 5 4 4 5 4 1 1 4 4 7 8 5 2 3 4 3 3 7 8 6 5 5 6 7 7 7 6 5 5 4 4 4 4 3 2 2 1 1 -0 -2 -3 -3 -3 -4 -3
4 4 4 5 3 3 2 3 2 2 4 4 4 5 4 5 5 5 7 7 7 6 5 5 8 8 7 6 6 6 5 5 6 5 6 7 6 6 6 4 2 1 -0 -1 -1 -1 -1 -2 -2 -3 -3 -3 -3 -4
Height
842 847 850 854 856 858 859 861 861 861 860 859 858 857 857 856 855 855 856 854 854 858 854 852 851 851 849 847 849 840 831 822 826 822 825 835 833 828 826 831 828 822 820 824 819 830 845 841 825 823 843 837 829 820
842 847 850 854 856 859 860 862 862 863 862 861 861 860 860 858 858 858 858 856 855 856 857 854 852 851 848 846 848 843 841 837 841 844 839 841 842 838 832 830 830 830 839 841 842 855 856 852 848 846 841 836 830 826
841 846 850 854 857 859 861 863 863 864 864 863 863 862 862 861 861 861 862 859 858 859 858 856 855 852 849 846 844 850 845 838 838 835 845 847 849 845 844 848 841 841 840 847 848 861 857 854 851 849 844 840 835 828
841 845 850 854 857 860 862 864 864 865 865 865 865 864 864 864 864 862 863 862 861 862 870 864 857 853 851 849 846 843 844 842 840 842 851 857 860 855 859 858 853 853 848 853 857 858 856 856 854 850 848 844 837 831
841 845 850 854 857 860 862 864 865 866 866 866 866 866 865 865 865 865 865 865 864 868 873 867 858 856 854 852 850 848 846 846 848 853 861 858 858 862 862 859 862 861 863 865 866 862 862 860 853 849 845 841 837 832
840 845 850 854 857 860 862 865 866 866 867 868 867 867 867 867 866 867 868 867 866 866 870 874 861 859 857 856 853 852 850 850 853 861 863 858 852 863 876 877 869 865 862 862 865 861 858 857 854 851 848 845 842 839
839 844 849 853 857 860 863 865 866 867 868 868 868 868 868 868 867 868 873 871 868 867 871 874 868 861 859 858 856 856 855 857 857 863 868 865 864 866 880 880 868 865 864 862 860 860 862 858 857 854 851 850 849 847
837 843 848 853 857 860 863 865 867 868 869 869 869 869 869 869 870 870 870 870 870 870 870 879 874 869 860 865 868 859 863 862 864 866 867 869 868 871 885 868 865 864 864 863 862 860 860 860 858 857 854 852 851 849
836 842 847 852 857 860 863 866 867 868 870 869 870 869 870 870 871 872 871 870 870 874 877 872 876 885 861 863 864 865 864 879 864 876 872 873 877 885 870 869 867 865 865 865 864 863 862 861 860 859 857 855 854 852
835 841 847 852 856 860 863 866 867 869 870 870 870 870 874 872 872 871 871 871 871 872 871 875 864 877 868 868 871 874 872 878 884 876 867 882 887 866 865 866 867 866 865 865 866 865 864 863 862 860 858 857 855 855
833 840 846 851 855 859 863 866 868 870 871 869 871 873 872 871 871 872 878 878 877 878 872 867 866 872 866 879 880 873 883 875 881 878 878 883 881 872 864 865 866 866 866 866 865 864 864 863 862 861 859 858 857 856
832 838 844 849 854 859 862 866 868 871 872 871 872 872 872 872 875 880 881 873 869 867 863 867 867 866 869 866 878 875 875 875 869 866 882 884 874 862 862 863 864 865 866 866 865 865 864 863 862 861 860 859 859 857
830 837 843 848 853 858 862 865 868 871 872 872 873 873 874 877 885 877 892 872 873 857 858 861 872 867 869 869 877 878 873 882 870 889 880 870 860 857 858 859 862 863 864 865 864 863 862 862 861 860 860 859 857 857
828 836 842 847 853 857 862 865 869 872 873 873 876 882 877 879 872 863 858 856 851 851 856 861 867 874 870 876 878 873 873 873 882 881 867 869 856 855 857 858 861 863 863 863 863 863 862 861 859 859 858 856 855 856
827 835 842 848 852 857 861 865 869 872 872 873 871 876 865 859 853 850 848 846 845 847 854 862 865 870 875 876 875 871 873 881 872 871 859 855 853 854 856 857 859 860 861 861 861 861 861 860 858 857 856 854 853 854
828 837 841 846 851 857 862 866 870 872 871 869 864 862 855 856 856 853 851 851 846 848 852 858 867 877 872 875 872 874 868 866 863 856 853 849 850 852 854 855 856 856 858 858 859 858 858 858 857 856 853 852 852 853
825 829 835 843 851 857 862 865 870 870 869 862 860 854 855 855 855 852 850 851 847 852 862 867 869 867 870 873 866 863 862 855 850 849 846 846 848 849 850 852 853 854 855 855 856 856 856 855 855 853 851 852 853 854
819 824 832 841 849 855 860 863 866 864 861 856 857 851 850 850 850 849 846 847 850 851 855 858 856 863 871 858 858 852 848 846 844 843 843 843 845 846 848 849 850 852 853 853 853 853 853 853 853 853 853 852 853 855
814 820 829 837 842 851 856 860 860 855 850 847 846 846 845 845 844 844 843 843 844 845 850 854 856 854 850 849 848 847 845 844 843 842 840 840 842 844 845 846 847 848 849 850 849 849 849 849 851 852 853 854 854 855
816 821 829 836 842 847 851 853 853 850 843 840 839 840 841 842 840 840 840 840 841 844 848 849 845 842 843 841 839 840 839 837 838 840 841 838 838 838 840 840 841 841 842 844 844 845 846 847 848 848 849 851 852 853
817 823 831 837 842 843 843 841 842 839 833 833 832 835 837 834 837 838 839 836 842 843 841 836 836 834 834 833 833 834 834 834 835 835 837 837 835 835 835 836 836 837 837 838 840 842 842 843 844 845 846 848 850 851
807 818 825 832 834 837 836 832 830 827 828 825 827 829 832 833 833 832 831 835 831 828 828 829 828 829 831 829 827 828 829 829 829 829 829 830 831 831 831 832 833 833 834 834 835 837 838 840 841 842 844 846 848 849
802 812 819 822 827 826 820 821 823 820 821 820 821 824 826 826 823 821 826 823 820 818 818 818 819 821 821 820 821 820 821 822 821 821 821 821 822 823 824 825 826 826 826 828 830 831 832 835 837 839 842 844 845 847
798 803 806 809 808 804 809 809 810 811 812 810 813 815 816 818 815 819 817 812 810 808 809 807 810 812 813 813 811 810 810 813 813 813 814 815 815 815 817 818 819 820 820 821 823 825 827 829 832 835 838 839 841 844
792 795 796 790 790 793 793 795 797 801 803 804 803 805 807 807 814 811 807 803 799 797 797 799 800 801 802 800 801 800 802 804 804 804 803 806 807 808 809 811 812 813 816 816 817 819 822 824 827 830 833 835 837 840
769 768 769 766 773 777 775 783 787 789 791 797 793 795 798 805 807 800 796 784 782 785 788 789 790 792 792 791 792 791 792 795 796 795 794 797 799 800 802 804 805 805 809 810 811 813 816 818 821 824 827 830 832 835
746 743 748 750 752 756 765 766 773 777 784 788 783 794 797 803 793 785 776 769 772 771 775 777 778 779 779 781 782 783 785 787 787 786 788 791 792 793 794 795 796 797 801 803 804 806 808 811 814 817 820 824 826 829
724 726 736 740 743 745 754 756 761 763 764 764 772 779 785 780 773 765 761 757 761 764 767 766 767 769 771 772 774 776 778 780 781 782 783 784 785 787 787 788 790 793 795 797 798 800 803 805 807 810 813 816 819 823
716 713 723 730 736 738 739 739 739 741 745 751 755 756 754 753 754 753 753 755 757 758 759 760 762 764 765 766 768 769 771 773 776 779 779 778 780 778 779 782 783 786 788 790 792 794 796 799 801 804 806 809 812 816
702 703 711 719 724 721 718 724 728 734 736 739 743 747 748 747 746 749 751 752 753 753 753 756 758 759 759 761 761 763 764 765 766 769 770 768 766 767 771 774 776 778 780 783 785 787 790 793 796 800 803 805 808 809
691 698 704 706 708 708 715 718 724 727 731 733 735 737 736 740 741 742 744 745 746 748 750 751 751 752 754 754 754 756 757 755 756 758 758 759 760 762 764 766 767 770 772 775 777 779 782 785 788 792 795 798 800 802
685 689 693 699 704 710 714 718 721 721 724 726 727 730 736 739 733 732 732 737 739 741 739 740 741 740 739 738 740 742 743 744 745 747 748 749 752 754 756 759 760 762 764 766 769 771 774 777 780 783 786 789 792 794
680 685 688 694 702 706 710 712 716 718 717 717 717 719 721 721 717 717 722 725 725 724 726 727 727 728 728 729 729 729 730 733 736 739 742 743 745 746 747 748 751 754 756 758 760 763 765 769 771 773 775 778 781 784
Wind_Speed
21 18 15 12 10 8 7 7 9 11 13 13 14 15 14 13 13 10 14 16 7 1 3 13 8 7 6 4 4 7 5 13 5 9 6 4 5 6 3 13 8 10 5 5 6 5 6 19 11 8 5 8 10 13
23 20 16 12 11 9 7 7 8 9 11 12 13 14 13 12 13 13 8 11 9 1 1 9 11 12 9 4 1 5 2 5 2 4 4 3 4 4 10 6 13 8 9 7 7 4 3 6 9 8 9 6 7 10
24 21 16 13 12 9 7 6 7 8 9 11 11 13 11 13 14 13 15 13 5 4 4 6 6 15 16 8 7 3 4 5 7 2 1 1 7 7 7 8 5 8 9 6 2 11 9 9 8 10 11 13 12 10
25 22 17 14 12 10 8 6 6 6 7 9 10 11 10 9 11 13 13 14 6 3 3 3 11 12 17 14 16 5 1 19 7 3 4 4 4 5 7 7 10 6 4 5 10 11 2 10 10 9 10 8 12 16
26 22 18 15 13 10 8 6 5 5 6 7 9 10 10 7 7 9 7 13 11 4 1 3 6 10 14 14 14 19 19 4 3 5 3 2 2 4 4 3 9 5 6 5 5 4 2 4 5 5 7 10 15 16
27 23 19 16 13 11 8 6 5 5 5 6 8 8 8 8 5 2 7 7 10 5 3 2 2 8 9 15 10 14 13 4 3 3 2 4 6 4 3 3 4 5 5 3 3 2 2 3 6 13 9 13 15 17
28 24 20 17 14 12 9 7 5 5 4 4 7 5 7 9 8 5 3 6 5 5 2 3 2 3 10 6 10 5 10 2 3 2 3 3 3 4 3 3 4 5 4 3 1 4 4 5 5 10 14 15 18 20
29 25 22 18 15 12 10 7 5 4 4 4 5 5 5 5 4 3 7 5 4 3 1 1 2 4 4 2 2 5 3 4 4 1 3 3 4 3 4 5 6 5 6 5 6 7 6 5 6 8 12 13 10 9
30 26 23 20 16 13 10 8 5 3 3 4 4 4 3 2 3 2 7 1 4 1 0 0 2 2 5 2 1 3 2 2 2 2 1 3 3 2 3 4 4 4 4 4 6 7 7 6 6 6 8 8 6 7
30 27 24 21 17 14 11 9 6 4 2 2 1 3 3 3 4 0 5 5 5 4 1 1 1 0 3 2 2 3 2 2 1 4 1 3 2 3 4 5 3 4 5 5 3 3 5 5 4 5 5 8 9 7
31 28 25 22 19 15 12 9 7 5 1 1 3 1 3 5 1 2 2 2 1 1 2 3 2 3 2 3 1 1 2 2 2 4 3 1 1 4 5 5 4 2 3 8 9 8 10 8 5 5 6 8 11 9
32 29 26 23 20 17 14 11 9 3 2 2 1 0 2 2 2 3 2 2 2 4 3 4 3 2 0 2 2 3 0 3 1 1 3 2 3 7 7 6 6 4 3 5 8 8 9 10 10 10 13 13 10 11
33 30 27 24 21 19 16 13 11 5 3 3 3 2 2 1 2 3 3 2 2 3 3 3 1 2 2 1 1 2 2 3 1 3 2 4 5 6 6 5 5 6 2 3 4 6 10 8 8 10 11 11 8 7
34 31 28 25 22 20 17 14 13 6 0 1 2 1 4 3 4 5 3 4 5 5 5 4 2 2 1 2 2 2 3 2 2 1 4 3 5 6 6 7 6 2 5 4 3 7 9 9 9 8 10 13 6 4
34 31 27 24 23 21 18 15 13 5 2 1 2 3 5 5 3 3 3 2 3 5 4 3 3 3 1 2 1 1 0 2 4 4 3 3 6 6 6 5 7 6 2 5 2 5 9 11 6 8 11 12 7 8
33 25 27 26 24 22 19 15 11 2 3 2 4 2 4 2 3 2 2 2 2 3 3 3 3 3 2 2 3 4 3 5 3 3 3 4 6 6 5 6 7 7 2 3 5 4 7 7 8 12 15 9 6 4
36 12 28 29 26 23 22 12 6 4 3 4 3 3 3 2 4 3 2 3 5 3 2 3 3 5 2 1 3 4 4 3 2 1 2 4 4 4 7 8 5 3 1 2 4 5 7 7 10 14 5 8 5 5
21 21 33 32 31 29 13 5 4 4 7 5 3 3 3 3 3 4 4 8 1 3 4 4 3 4 4 4 3 3 2 2 2 4 3 2 3 6 4 3 2 2 2 2 6 9 7 4 8 12 7 9 13 10
29 30 36 39 36 12 6 6 5 3 7 3 5 4 2 4 9 13 7 12 13 9 4 2 4 4 5 3 3 4 3 2 2 4 5 9 6 4 5 6 6 5 7 9 9 6 3 3 5 8 7 8 11 9
29 32 39 41 35 6 5 3 7 3 3 5 4 5 4 3 3 4 4 3 2 2 3 5 5 3 4 4 2 2 2 3 1 1 3 4 10 9 10 12 14 15 14 13 10 5 3 5 3 3 4 4 5 3
32 36 39 38 14 7 5 3 4 3 3 3 4 4 3 2 4 5 3 5 2 3 4 4 4 4 11 14 14 10 11 10 3 4 5 3 9 11 11 13 12 12 14 9 5 6 6 7 4 4 8 7 4 3
23 42 15 20 5 8 4 10 3 3 3 3 4 4 3 3 4 3 3 4 5 8 4 4 5 7 7 10 18 19 20 21 20 19 15 12 4 7 12 16 13 10 9 8 8 8 10 9 7 6 8 9 7 5
33 23 8 6 4 9 4 14 6 4 3 4 5 4 3 3 4 6 3 4 4 11 16 18 21 21 21 25 24 24 23 20 17 19 21 22 23 22 20 17 15 19 19 17 12 11 14 13 10 9 10 10 8 7
20 11 6 7 8 6 5 7 4 6 4 5 5 4 4 3 3 2 4 5 4 14 15 22 21 11 17 20 17 23 27 24 23 25 24 18 16 18 18 19 19 20 20 18 16 15 16 17 14 14 16 14 9 7
9 8 6 8 6 7 7 8 7 6 6 8 11 5 4 3 3 4 4 3 8 9 9 18 18 17 12 11 17 22 26 24 20 14 25 22 23 22 20 20 19 20 18 19 18 19 21 19 17 18 18 15 11 10
8 9 10 13 8 7 9 8 10 5 7 8 6 4 3 3 4 5 5 11 12 8 8 10 10 9 10 22 11 16 23 23 23 21 25 23 23 24 18 11 14 21 20 22 22 22 23 23 21 21 19 17 13 12
9 9 6 5 5 7 4 9 6 10 7 7 7 5 5 6 7 4 4 10 6 15 24 27 23 21 17 20 26 29 27 24 26 23 25 23 23 24 24 22 21 25 19 21 25 26 27 25 24 23 22 19 18 16
5 8 10 11 7 9 8 12 12 12 9 4 8 11 8 9 7 4 5 16 25 23 24 29 28 27 29 29 27 22 18 19 21 21 19 19 21 23 24 22 21 21 20 20 24 25 25 26 26 26 25 24 21 17
5 7 10 12 9 6 11 12 10 5 6 7 12 14 8 3 5 4 9 15 14 11 11 15 15 19 22 22 21 20 19 21 19 7 9 8 7 26 28 25 23 22 23 21 24 27 26 25 26 26 24 23 22 19
7 9 10 11 8 13 11 5 7 5 4 6 7 6 5 3 19 23 19 14 16 17 19 18 20 18 15 13 15 19 22 25 28 25 11 10 22 30 22 23 27 25 24 25 28 27 24 21 21 20 18 20 24 24
6 8 6 10 10 11 4 5 3 6 7 7 6 10 13 6 15 23 25 29 28 24 18 17 19 23 19 18 18 13 13 31 33 35 37 37 30 23 21 19 21 27 28 29 31 31 29 28 27 25 24 24 28 30
9 12 12 13 6 4 6 5 6 10 8 8 11 7 3 3 12 6 29 32 24 16 27 28 22 26 39 41 36 33 34 28 27 34 39 39 38 36 32 26 23 24 29 32 33 33 33 32 28 28 27 28 27 33
6 6 6 7 4 7 4 8 5 4 6 9 11 11 12 13 18 8 21 35 41 37 33 36 44 45 44 42 41 41 40 37 35 32 27 28 27 27 28 29 28 28 29 31 33 33 32 32 30 30 31 29 30 33
Wind_Direction
165 162 156 154 145 128 109 90 74 63 59 52 56 60 62 60 57 66 48 31 41 24 14 65 26 8 1 24 9 297 351 7 358 20 22 359 26 13 54 34 356 18 28 10 24 56 27 345 349 54 326 345 356 10
166 164 159 159 150 139 120 97 82 68 60 56 52 57 60 63 60 65 30 26 5 331 192 60 60 16 353 31 160 319 81 326 266 35 2 26 17 4 18 57 11 50 55 60 40 65 304 337 31 11 1 341 357 4
168 166 162 161 154 147 129 105 88 75 63 57 50 54 59 75 68 55 39 29 26 350 359 55 36 8 14 13 21 79 337 359 360 172 180 37 70 15 36 28 35 19 27 49 86 53 41 24 17 28 19 19 9 13
172 168 164 163 158 151 137 111 95 81 65 55 47 46 51 87 74 57 41 37 64 334 101 350 47 22 17 35 28 32 303 40 32 60 42 44 57 15 46 50 56 19 5 52 62 28 9 27 21 13 25 29 18 24
174 170 167 165 160 155 142 119 103 85 66 50 43 44 51 85 63 59 69 46 58 40 194 293 29 24 26 10 44 35 26 41 43 43 55 59 112 67 35 35 47 2 27 43 62 346 59 302 328 355 31 14 31 20
176 172 171 168 163 159 150 134 110 86 64 46 39 48 64 49 52 76 29 2 25 56 78 20 179 15 39 29 27 40 18 23 42 69 17 19 32 96 58 46 57 42 58 101 138 114 8 42 29 21 27 30 32 31
177 174 173 171 164 162 159 148 123 83 56 44 35 69 76 56 77 71 136 328 27 57 58 341 50 334 16 47 4 18 32 38 61 29 60 80 29 67 77 90 160 129 115 84 49 101 49 42 37 36 28 35 39 30
178 176 174 172 167 165 163 155 136 95 44 43 44 90 80 57 69 61 13 30 33 32 272 57 282 33 7 324 9 10 9 23 355 144 26 54 354 54 52 50 62 94 87 58 42 59 74 78 56 44 39 39 35 31
179 178 176 175 170 166 163 161 148 109 44 58 77 51 82 68 33 3 337 49 69 258 169 101 149 227 339 295 132 357 76 30 277 43 9 74 341 33 112 80 71 51 52 103 59 49 41 58 39 15 33 19 45 26
181 180 179 177 173 171 168 165 154 120 62 58 70 43 15 352 319 41 355 19 20 337 314 225 350 124 77 350 6 43 355 217 123 245 95 104 242 164 138 139 94 19 21 51 68 46 44 10 52 21 17 31 32 49
182 181 181 179 177 176 173 170 150 129 348 42 60 171 14 354 316 24 7 73 270 341 222 243 118 128 324 87 219 143 240 285 54 268 107 284 182 228 183 138 123 61 14 10 6 39 42 4 30 12 358 29 31 32
183 182 182 181 179 179 176 170 152 130 330 62 54 228 355 349 22 61 266 281 215 228 190 144 211 143 311 108 85 337 309 14 292 253 68 304 226 197 194 174 176 128 44 6 350 11 7 351 15 21 14 16 21 9
184 184 184 181 181 180 177 171 163 133 120 38 30 24 77 282 47 176 202 248 251 170 164 112 40 141 15 61 41 73 57 257 342 43 239 224 193 169 185 158 153 159 197 215 312 343 348 358 9 349 333 317 322 7
184 184 184 181 180 179 177 171 167 166 176 160 136 286 179 208 240 205 209 194 219 127 133 115 101 126 144 47 161 125 245 47 338 270 236 223 185 158 122 113 89 337 296 312 355 7 346 331 307 306 307 315 291 121
184 184 182 183 181 178 174 170 169 173 288 229 203 237 215 232 252 249 270 40 8 131 117 81 77 119 228 86 255 229 104 264 227 231 199 165 150 147 149 167 184 207 254 289 327 349 324 321 334 332 333 334 190 152
180 176 187 185 180 175 169 160 164 176 259 250 238 267 276 360 281 297 4 329 331 115 85 69 105 66 225 183 183 206 211 216 242 195 190 141 148 160 164 174 204 220 179 308 297 288 311 337 343 320 307 271 193 126
172 177 184 179 174 168 170 143 157 215 236 234 245 224 263 293 211 238 181 251 275 99 133 108 168 205 190 186 231 194 209 216 171 157 145 151 151 172 195 211 210 169 214 290 319 323 326 326 316 317 355 165 159 164
177 174 177 170 164 164 160 145 185 218 229 231 236 230 196 220 260 269 212 234 229 165 136 199 188 182 197 199 210 249 271 276 209 169 155 147 196 193 196 220 231 266 269 315 308 290 284 349 20 7 79 110 112 116
170 169 172 170 167 146 145 189 205 234 217 223 213 260 220 215 220 244 264 243 224 192 140 151 230 210 213 213 218 285 283 216 211 236 206 191 208 241 228 221 229 245 260 264 270 270 247 142 88 85 83 84 98 99
172 165 171 179 167 137 157 206 192 228 229 208 205 212 200 208 239 213 232 246 223 182 182 205 221 214 193 234 220 229 251 284 131 357 281 235 210 225 244 234 230 236 239 242 243 237 214 162 143 191 179 162 156 129
163 169 174 173 194 199 197 184 204 225 214 201 184 186 229 219 214 225 217 200 188 213 223 212 227 248 254 257 266 281 297 297 249 195 212 239 263 250 257 260 257 252 234 223 207 202 186 180 181 211 177 168 162 134
160 163 156 182 169 191 228 208 223 258 198 182 167 179 198 190 216 213 179 206 229 232 210 191 225 231 249 260 262 262 264 265 268 268 265 260 255 262 265 266 263 259 245 235 238 242 210 183 179 179 189 174 168 171
150 160 153 142 176 202 225 175 187 198 198 191 161 181 208 205 210 157 206 210 222 225 233 236 239 238 236 246 255 262 264 264 249 243 242 241 245 249 246 249 254 249 243 247 245 251 215 201 197 195 192 186 179 162
159 154 164 191 200 193 166 188 196 182 204 188 168 192 192 199 161 184 225 211 217 215 228 234 233 238 242 245 246 248 251 250 254 259 255 243 238 246 246 249 250 250 249 244 230 227 200 189 186 187 189 190 219 242
151 181 201 201 181 182 170 169 170 184 201 197 214 207 187 160 191 221 197 239 220 227 224 222 225 228 233 239 246 247 249 246 235 235 248 240 244 251 247 245 246 250 251 237 216 206 192 191 192 195 199 208 214 230
193 196 197 183 163 183 175 176 185 161 176 193 209 187 157 165 205 240 205 237 238 223 217 217 219 224 233 232 239 242 241 242 241 233 245 239 234 232 227 212 228 244 244 244 224 199 191 195 198 200 204 205 204 216
196 192 174 210 162 166 144 186 166 185 191 191 170 142 158 215 228 224 234 231 227 222 229 231 226 223 231 233 235 241 244 238 233 239 252 247 241 240 240 227 222 245 248 239 228 217 209 206 210 209 210 210 211 212
201 176 170 168 188 180 174 176 187 196 200 163 160 195 189 199 215 204 208 236 236 246 250 248 240 234 235 238 242 243 243 236 236 239 247 246 243 239 241 244 251 250 242 238 233 222 221 222 220 215 211 213 212 211
196 167 158 187 174 181 198 197 199 180 152 177 195 203 213 206 172 195 216 210 199 230 245 236 224 230 233 239 240 238 235 221 192 185 214 231 239 238 233 240 243 239 234 237 235 230 229 229 225 221 220 218 211 210
192 170 185 170 186 206 205 172 191 178 174 189 203 224 230 242 223 232 233 217 209 221 234 234 235 225 227 229 240 231 223 225 228 216 219 228 229 247 250 237 231 228 230 229 223 216 217 217 211 207 208 205 206 201
141 177 178 193 211 210 179 161 128 165 193 203 201 214 224 221 231 233 232 234 237 238 228 223 227 232 228 226 223 227 239 236 232 234 238 244 248 248 250 242 235 228 225 219 215 212 207 201 202 204 203 207 207 206
173 187 188 195 199 139 129 161 179 199 195 205 219 219 197 212 232 222 224 227 220 209 224 224 216 229 240 245 248 245 249 256 255 246 240 240 243 247 246 245 235 227 221 219 218 215 211 208 199 203 208 213 213 212
178 178 179 186 134 158 176 179 184 202 205 215 221 217 221 226 236 224 219 223 226 227 228 232 243 251 255 257 259 263 265 264 261 256 253 254 252 252 252 244 234 225 220 217 214 213 212 211 209 209 212 215 215 215